STARLINK-35951, 66619

Orbit data source: Space-Track

STARLINK-35951, 66619 is a payload satellite owned by SpaceX/Seattle (US) in LEO that was launched on Sun, 23 Nov 2025 UTC via an FALCON 9 launch vehicle from the Air Force Western Test Range (AFWTR). Payload-class satellites include a variety of spacecraft equipped with specific instruments for various scientific and technological missions. These include communications satellites like Starlink; space stations such as the ISS; scientific satellites like the Hubble; Earth observation satellites from companies like Planet Labs, Umbra, and HawkEye 360; GPS; miniature CubeSats for education and research; and military/defense satellites.

Loading next visibility...
Identifier
66619, 2025-271C
Orbit
LEO
Country
Flag of USUS
Related business
Manufacturer
SpaceX/Seattle
Mission
Operational Commercial Communications
Bus & Motor
STARLINK V2MO, Unknown motor
Mass
575 kg wet, ~530 kg dry
Launch date (UTC)
2025-11-23 (7 months ago)
Launch vehicle
FALCON 9
Launch site
Air Force Western Test Range (AFWTR)
Object type
Payload
Rocket body
Debris
Shape & HBR
Box + 2 Pan, 17.7 m
Radar Cross Section
36.964 m², Large (>1 m²)

Expand to show TLE details & history
Last TLE update: 3 days ago

TLE from 3 days ago
0 STARLINK-35951
1 66619U 25271C   26170.77318987  .00019479  00000-0  66792-3 0  9994
2 66619  53.1598  25.9404 0001768  84.8488 275.2714 15.30206727 33194
Epoch: 2026-06-19T18:33Z
TLE epoch observation values (Epoch: 2026-06-19T18:33:23.604Z)
Latitude
-0.00008°
Longitude
-160.40536°
Altitude
475.984 km
Speed
7.629 km/s
True Right ascension
01h 43m 45s
True Declination
0° 00' 00"
Sunlit
Object was in daylight at epoch
Visualization orbit readout
Latitude
Unknown
Longitude
Unknown
Altitude
Unknown
Speed
Unknown
Apparent Right ascension
Unknown
Apparent Declination
Unknown
Sunlit
N/A
Visualization observer readout
Local Sidereal Time
13:16:44
Azimuth
Unknown
Elevation
Unknown
Doppler factor
Unknown
Orbital elements
Apogee altitude
476.663 km
Perigee altitude
474.24 km
Semi-major axis
6,853.588 km
Eccentricity
0.00018
Inclination
53.1598°
RAAN
25.9404°
Arg. of periapsis
84.8488°
True anomaly
275.25123°
Mean anomaly
275.2714°
Eccentric anomaly
275.26131°
Mean motion
3.82531 °/min
Orbital period
94.11 mins
BSTAR
0.00066792
Loading maneuver chart data...
Computing Atmospheric mass density...
Loading historical data...
Loading historical data...
Loading historical data...
Loading historical data...
Loading historical data...
Loading historical data...
Loading historical data...

Documentation

Showing up to 5 results
|